DW4513 Weather Reports


time (UTC)temp
C
wind
direction
speed
KPH
gust
KPH
rain 1hr
cm
rain 24hr
cm
rain mn
cm
humidity
%
barometer
mb
20260507134547 12 333 4.8 14.5 0.00 2.03 0.43 72 1004.8
20260507133035 11 28 6.4 16.1 0.00 2.03 0.43 73 1005.2
20260507131536 11 17 8.0 20.9 0.00 2.03 0.43 78 1004.9
20260507130032 10 294 8.0 17.7 0.00 2.03 0.43 78 1004.9
20260507124527 10 14 6.4 17.7 0.00 2.03 0.43 81 1004.7
20260507123023 9 11 3.2 11.3 0.00 2.03 0.43 85 1004.7
20260507121521 8 12 3.2 12.9 0.00 2.03 0.43 86 1004.7
20260507120019 8 346 3.2 8.0 0.00 2.03 0.43 89 1005.0
20260507114525 7 336 1.6 9.7 0.00 2.03 0.43 90 1005.2
20260507113014 7 322 0.0 0.0 0.00 2.03 0.43 91 1006.2
20260507111519 7 322 0.0 8.0 0.00 2.03 0.43 91 1006.1
20260507110010 7 321 1.6 9.7 0.00 2.03 0.43 92 1005.6
20260507104508 7 355 4.8 9.7 0.00 2.03 0.43 92 1005.4
20260507103004 7 313 1.6 6.4 0.00 2.03 0.43 93 1005.0
20260507101507 7 314 0.0 9.7 0.00 2.03 0.43 93 1004.4
20260507100001 7 309 0.0 6.4 0.00 2.03 0.43 93 1004.6
20260507094619 7 302 3.2 9.7 0.00 2.03 0.43 93 1004.3
20260507093101 7 346 4.8 9.7 0.00 2.03 0.43 93 1004.5
20260507091635 7 317 3.2 8.0 0.00 2.03 0.43 93 1004.9
20260507090106 7 340 0.0 9.7 0.00 2.03 0.43 93 1004.7
20260507084555 7 332 3.2 12.9 0.00 2.03 0.43 93 1004.1
20260507083051 7 326 4.8 9.7 0.00 2.03 0.43 93 1004.0
20260507081549 8 350 3.2 14.5 0.00 2.03 0.43 94 1004.2
20260507080046 8 317 3.2 12.9 0.03 2.03 0.43 94 1004.1
20260507074547 8 360 1.6 11.3 0.03 2.03 0.43 94 1003.6
20260507073043 8 342 6.4 14.5 0.03 2.03 0.43 94 1003.4
20260507071540 8 355 0.0 9.7 0.03 2.03 0.43 94 1003.7
20260507070056 8 309 0.0 6.4 0.10 2.01 0.41 94 1003.4
20260507064539 8 307 0.0 12.9 0.36 2.01 0.41 94 1003.6
20260507063037 9 311 3.2 11.3 0.41 2.01 0.41 94 1003.2
20260507061536 9 302 8.0 17.7 0.41 2.01 0.41 94 1002.8
20260507060032 10 213 4.8 19.3 0.30 1.91 0.30 94 1004.1
20260507054529 10 238 3.2 12.9 0.05 1.68 0.05 94 1003.7
20260507053028 10 248 4.8 16.1 0.00 1.63 0.00 94 1003.0
20260507051536 10 223 0.0 9.7 0.00 1.63 0.00 94 1003.2
20260507050025 10 229 1.6 11.3 0.00 1.63 0.00 94 1003.3
20260507044526 10 256 4.8 11.3 0.00 1.65 0.00 94 1003.3
20260507043022 10 241 4.8 14.5 0.00 1.65 0.00 94 1003.2
20260507041519 10 202 1.6 9.7 0.03 1.65 0.00 94 1003.4
20260507040016 10 200 8.0 12.9 0.05 1.65 0.00 94 1003.5
20260507034525 10 229 3.2 12.9 0.08 1.65 1.65 94 1003.6
20260507033018 9 196 3.2 14.5 0.13 1.65 1.65 94 1003.6
20260507031513 9 183 3.2 14.5 0.15 1.63 1.63 93 1003.8
20260507030017 9 229 3.2 12.9 0.18 1.60 1.60 93 1003.9
20260507024518 9 164 6.4 17.7 0.25 1.57 1.57 93 1004.1
20260507023010 9 198 6.4 29.0 0.36 1.52 1.52 93 1004.3
20260507021508 9 210 8.0 20.9 0.43 1.45 1.45 94 1004.4
20260507020108 9 180 6.4 20.9 0.46 1.42 1.42 93 1004.6
20260507014506 9 149 6.4 24.1 0.43 1.32 1.32 93 1004.9
20260507013002 9 163 9.7 22.5 0.38 1.17 1.17 93 1005.5
20260507011600 9 146 3.2 17.7 0.36 1.04 1.04 93 1005.7
20260507010114 9 158 4.8 11.3 0.36 0.97 0.97 93 1006.0
20260507004557 8 173 3.2 19.3 0.41 0.89 0.89 93 1006.1
20260507003055 8 152 8.0 22.5 0.41 0.79 0.79 93 1006.4
20260507001559 8 140 8.0 22.5 0.38 0.69 0.69 93 1006.6
20260507000059 8 147 6.4 20.9 0.33 0.61 0.61 93 1006.9
20260506234559 9 171 6.4 16.1 0.23 0.48 0.48 92 1006.6
20260506233059 9 132 4.8 16.1 0.15 0.38 0.38 93 1006.8
20260506231549 9 216 6.4 20.9 0.13 0.30 0.30 93 1007.1
20260506230051 9 167 3.2 17.7 0.15 0.28 0.28 93 1006.8
20260506224551 8 187 6.4 24.1 0.18 0.25 0.25 92 1007.3
20260506223045 8 150 3.2 25.7 0.15 0.23 0.23 92 1007.1
20260506221546 8 135 6.4 17.7 0.13 0.18 0.18 92 1007.7
20260506220048 9 111 6.4 19.3 0.08 0.13 0.13 91 1007.9
20260506214539 9 142 4.8 17.7 0.03 0.08 0.08 90 1008.1
20260506213038 10 123 6.4 24.1 0.03 0.08 0.08 89 1008.0
20260506211546 11 200 6.4 19.3 0.00 0.05 0.05 89 1008.1
20260506210037 11 254 3.2 17.7 0.00 0.05 0.05 88 1008.0
20260506204536 11 209 3.2 19.3 0.00 0.05 0.05 89 1008.2
20260506203035 10 188 1.6 22.5 0.00 0.05 0.05 88 1008.3
20260506201534 10 98 3.2 17.7 0.00 0.05 0.05 87 1007.6
20260506200033 10 169 8.0 25.7 0.00 0.05 0.05 87 1007.7
20260506194536 10 228 8.0 19.3 0.00 0.05 0.05 87 1007.9
20260506193034 11 146 8.0 20.9 0.00 0.05 0.05 86 1007.8
20260506191529 11 135 3.2 17.7 0.00 0.05 0.05 87 1008.3
20260506190029 10 161 8.0 22.5 0.00 0.05 0.05 87 1008.4
20260506184527 10 140 4.8 27.4 0.00 0.05 0.05 87 1008.4
20260506183025 10 148 4.8 20.9 0.00 0.05 0.05 87 1008.6
20260506181527 10 128 6.4 17.7 0.00 0.05 0.05 86 1008.7
20260506180022 11 132 6.4 17.7 0.00 0.05 0.05 86 1008.8
20260506174522 11 194 6.4 19.3 0.00 0.05 0.05 85 1008.9
20260506173022 11 130 6.4 16.1 0.00 0.05 0.05 85 1009.2
20260506171522 11 195 6.4 16.1 0.00 0.05 0.05 85 1009.2
20260506170020 11 246 6.4 16.1 0.00 0.05 0.05 85 1009.4
20260506164521 11 136 8.0 24.1 0.00 0.05 0.05 85 1009.5
20260506163023 11 185 6.4 25.7 0.00 0.05 0.05 86 1009.9
20260506161519 11 226 6.4 22.5 0.00 0.05 0.05 86 1009.9
20260506160018 11 146 6.4 20.9 0.00 0.05 0.05 87 1010.0
20260506154516 11 157 4.8 17.7 0.00 0.05 0.05 87 1009.9
20260506153015 10 179 4.8 14.5 0.00 0.05 0.05 89 1009.6
20260506151514 10 167 4.8 19.3 0.00 0.05 0.05 89 1009.9
20260506150013 10 142 6.4 17.7 0.00 0.05 0.05 90 1010.3
20260506144525 10 160 6.4 16.1 0.00 0.05 0.05 90 1010.6
20260506143013 10 166 4.8 14.5 0.00 0.05 0.05 89 1010.8
20260506141512 10 172 4.8 20.9 0.00 0.05 0.05 89 1010.4
20260506140011 10 165 3.2 17.7 0.00 0.05 0.05 89 1010.4